[[{"header":{"parameterUnit":"m.s-1","parameterCategory":1,"la1":30.2991,"la2":30.254,"lo1":-89.0895,"lo2":-89.0444,"dy":0.0017,"dx":0.0017,"nx":28,"ny":28,"refTime":"2025-11-12T09:00:00:Z","depth":0,"parameterNumber":2,"parameterNumberName":"U-component_of_WINDS"},"data":[0,0,0,0,0,0,0,0,0,0,0,0,0,0,0,0,0,0,0,0,0,0,0,0,0,0,0,0,0,0,0,0,0,0,0,0,0,0,0,0,0,0,0,0,0,0,0,0,0,0,0,0,0,0,0,0,0,0,0.4663,0.4663,0,0.4645,0.4645,0.4644,0.4634,0.4634,0.4634,0.4634,0.4615,0.4615,0.4614,0,0,0,0,0,0,0,0,0,0,0,0,0,0.4689,0.4689,0.4663,0.4663,0.4663,0.4645,0.4645,0.4644,0.4634,0.4634,0.4634,0.4634,0.4615,0.4615,0.4614,0,0,0,0,0,0,0,0,0,0,0,0,0,0.4675,0.4689,0.4663,0.4655,0.4654,0.4645,0.4645,0.4644,0.4634,0.4634,0.4634,0.4634,0.4616,0.4615,0.4614,0.4612,0,0,0.4612,0.4612,0,0,0,0,0,0,0,0,0.4676,0.4674,0.4657,0.4656,0.4655,0.4641,0.4647,0.4633,0.4634,0.4642,0.4634,0.4633,0.4624,0.4623,0.4619,0.4611,0.461,0.4612,0.4612,0.4611,0.4611,0,0,0,0,0,0,0,0.4677,0.4675,0.4656,0.4656,0.4655,0.4653,0.4651,0.4644,0.4633,0.4641,0.464,0.4638,0.4624,0.462,0.4619,0.461,0.4612,0.4612,0.4611,0.4611,0.4598,0.4598,0,0,0,0,0,0,0.4679,0.4676,0.4657,0.4655,0.4665,0.4652,0.465,0.4646,0.4633,0.4632,0.4638,0.4638,0.4621,0.462,0.4618,0.4614,0.4611,0.4611,0.461,0.4597,0.4598,0.4598,0,0,0,0,0,0,0.468,0.4678,0.4657,0.4665,0.4663,0.4652,0.4647,0.4646,0.4642,0.4631,0.4629,0.4637,0.4621,0.4619,0.4613,0.4613,0.4611,0.461,0.4597,0.4597,0.4598,0.4606,0,0,0,0,0,0,0.4681,0.4678,0.4677,0.4665,0.4662,0.4653,0.4647,0.4645,0.4641,0.464,0.4629,0.4628,0.4621,0.4614,0.4613,0.4612,0.4609,0.4597,0.4597,0.4598,0.4606,0.4606,0.4607,0,0,0,0,0,0.4682,0.468,0.4677,0.4674,0.466,0.4653,0.4651,0.4643,0.4641,0.464,0.4633,0.4628,0.4614,0.4614,0.4612,0.4611,0.4597,0.4597,0.4598,0.4605,0.4606,0.4607,0,0,0,0,0,0,0.4692,0.4678,0.4675,0.4669,0.4662,0.4651,0.4649,0.4644,0.4638,0.4637,0.4628,0.4626,0.462,0.4615,0.4616,0.4608,0.4605,0.4605,0.4612,0.4612,0.4613,0.4614,0.4609,0,0,0,0,0,0.4693,0.4688,0.4676,0.4673,0.4669,0.466,0.4656,0.4651,0.4643,0.464,0.4633,0.4625,0.4619,0.4615,0.4609,0.4605,0.4602,0.4603,0.4604,0.4605,0.4605,0.4602,0.4602,0.4598,0.4598,0.4598,0,0,0.4696,0.4688,0.4686,0.4675,0.4668,0.4663,0.4657,0.4652,0.4648,0.4639,0.4633,0.4627,0.4619,0.4614,0.4611,0.4609,0.4605,0.4605,0.4605,0.4605,0.4602,0.4602,0.4603,0.4598,0.4598,0.4598,0,0,0.47,0.4693,0.4689,0.4683,0.4674,0.4667,0.4666,0.4656,0.4652,0.4645,0.4639,0.4634,0.4623,0.4617,0.4613,0.4614,0.4609,0.4612,0.4615,0.4612,0.4613,0.4613,0.4613,0.4613,0.4612,0.4612,0.4612,0,0.4705,0.4696,0.4688,0.4683,0.4678,0.467,0.4666,0.466,0.465,0.4647,0.4645,0.4631,0.4625,0.4618,0.4618,0.4615,0.4614,0.4613,0.4613,0.4614,0.4614,0.4614,0.4614,0.4612,0.4612,0.4612,0.4612,0,0.4703,0.4697,0.4696,0.4685,0.468,0.4676,0.4667,0.4663,0.4658,0.4652,0.4645,0.4637,0.4629,0.4627,0.4622,0.4619,0.4619,0.4615,0.4612,0.4615,0.4615,0.4615,0.4613,0.4613,0.4613,0.4612,0,0,0.4712,0.4697,0.4697,0.4692,0.4681,0.4676,0.4671,0.4663,0.466,0.4653,0.4649,0.464,0.4636,0.4632,0.4626,0.4623,0.4624,0.462,0.462,0.4621,0.4621,0.4623,0.4624,0.4621,0.4621,0.4621,0.4621,0,0.4714,0.4705,0.4697,0.4691,0.4685,0.4677,0.4673,0.4666,0.466,0.4654,0.4648,0.4642,0.4638,0.4635,0.4632,0.4625,0.4624,0.4625,0.4617,0.4617,0.462,0.4624,0.4626,0.4627,0.4621,0.4621,0.4621,0,0.4715,0.4708,0.4701,0.469,0.4688,0.4684,0.4676,0.4671,0.4662,0.4658,0.4653,0.4647,0.4641,0.4638,0.463,0.4631,0.4627,0.4623,0.4623,0.4622,0.4619,0.4623,0.4627,0.4627,0.4621,0.4621,0.4621,0,0.4722,0.4711,0.4705,0.4701,0.4689,0.4687,0.4681,0.4673,0.4668,0.4661,0.4658,0.4651,0.4647,0.4641,0.4633,0.4631,0.4626,0.4622,0.4622,0.4622,0.4621,0.4622,0.4625,0.4619,0.4619,0.4619,0.4619,0,0.4725,0.4721,0.4708,0.4705,0.4701,0.4692,0.4687,0.4681,0.4674,0.4669,0.4661,0.4657,0.4647,0.4641,0.4635,0.4629,0.4628,0.4624,0.4622,0.4625,0.4625,0.4622,0.4622,0.4619,0.4619,0.4619,0.4619,0,0.4732,0.4724,0.4717,0.4706,0.4703,0.47,0.469,0.4687,0.468,0.4674,0.4672,0.4662,0.4655,0.4647,0.4637,0.4633,0.4628,0.4625,0.4631,0.463,0.463,0.463,0.4632,0.4632,0.4626,0.4626,0.4626,0,0.4735,0.4731,0.472,0.4716,0.4711,0.4705,0.4701,0.4691,0.4687,0.4677,0.4675,0.4667,0.466,0.465,0.4641,0.4634,0.4631,0.4632,0.463,0.4632,0.4631,0.4631,0.4631,0.4633,0.4633,0.4633,0.4633,0,0.474,0.4736,0.4729,0.4722,0.4716,0.471,0.4703,0.47,0.469,0.4685,0.4678,0.4672,0.4662,0.4655,0.4646,0.4641,0.4635,0.4634,0.4634,0.4636,0.4639,0.4638,0.4632,0.4634,0.4634,0.4634,0.4634,0.4634,0.4745,0.4742,0.4733,0.4726,0.472,0.4713,0.4709,0.4702,0.4696,0.4687,0.4682,0.4675,0.4666,0.4654,0.4649,0.4643,0.4641,0.464,0.464,0.464,0.4641,0.464,0.4641,0.4641,0.4641,0.4641,0.4641,0,0.475,0.4743,0.4737,0.4728,0.4722,0.4718,0.471,0.4705,0.4699,0.4692,0.4685,0.4677,0.4669,0.466,0.4652,0.4649,0.4647,0.4648,0.4648,0.4646,0.4643,0.4644,0.465,0.465,0.465,0.465,0.465,0.465,0.4751,0.4746,0.4741,0.4732,0.4726,0.4719,0.4714,0.4708,0.4702,0.4693,0.4687,0.4681,0.4673,0.4664,0.4657,0.4654,0.4652,0.4654,0.465,0.4647,0.4647,0.4646,0.4647,0.4653,0.4653,0.4654,0.4654,0.4654]},{"header":{"parameterUnit":"m.s-1","parameterCategory":1,"la1":30.2991,"la2":30.254,"lo1":-89.0895,"lo2":-89.0444,"dy":0.0017,"dx":0.0017,"nx":28,"ny":28,"refTime":"2025-11-12T09:00:00:Z","depth":0,"parameterNumber":3,"parameterNumberName":"V-component_of_WINDS"},"data":[0,0,0,0,0,0,0,0,0,0,0,0,0,0,0,0,0,0,0,0,0,0,0,0,0,0,0,0,0,0,0,0,0,0,0,0,0,0,0,0,0,0,0,0,0,0,0,0,0,0,0,0,0,0,0,0,0,0,0.1976,0.1976,0,0.1969,0.1969,0.1969,0.1989,0.199,0.199,0.1991,0.1982,0.1981,0.1981,0,0,0,0,0,0,0,0,0,0,0,0,0,0.2003,0.2002,0.1976,0.1976,0.1976,0.1969,0.1969,0.1969,0.1989,0.199,0.199,0.1991,0.1982,0.1981,0.198,0,0,0,0,0,0,0,0,0,0,0,0,0,0.1993,0.2002,0.1976,0.1985,0.1986,0.1969,0.1969,0.1969,0.1989,0.199,0.199,0.1991,0.1983,0.1982,0.198,0.1955,0,0,0.1977,0.1976,0,0,0,0,0,0,0,0,0.1994,0.1992,0.1984,0.1984,0.1985,0.1981,0.1976,0.1964,0.1988,0.1987,0.1991,0.1992,0.1981,0.198,0.1977,0.1954,0.1954,0.1977,0.1976,0.1975,0.1975,0,0,0,0,0,0,0,0.1994,0.1992,0.1973,0.1984,0.1984,0.1988,0.1988,0.1973,0.1979,0.1988,0.1989,0.1988,0.1981,0.1978,0.1976,0.1954,0.1977,0.1976,0.1975,0.1974,0.1906,0.1905,0,0,0,0,0,0,0.1994,0.1993,0.1974,0.1973,0.1992,0.1987,0.1987,0.1981,0.1979,0.198,0.1987,0.1989,0.1979,0.1978,0.1976,0.1943,0.1975,0.1974,0.1974,0.1907,0.1906,0.1905,0,0,0,0,0,0,0.1995,0.1992,0.1974,0.1983,0.1981,0.1986,0.1979,0.1981,0.1977,0.1979,0.198,0.1983,0.198,0.1978,0.1959,0.1943,0.1974,0.1973,0.1909,0.1907,0.1906,0.1879,0,0,0,0,0,0,0.1995,0.1992,0.1983,0.1983,0.1981,0.1958,0.1979,0.198,0.1975,0.1977,0.1975,0.1975,0.198,0.1961,0.1958,0.1942,0.1972,0.191,0.1908,0.1906,0.1881,0.1877,0.1873,0,0,0,0,0,0.1996,0.1977,0.1983,0.198,0.197,0.1957,0.1955,0.1962,0.1974,0.1964,0.1965,0.1975,0.1946,0.1959,0.1956,0.1939,0.1911,0.1909,0.1906,0.1883,0.1878,0.1873,0,0,0,0,0,0,0.1975,0.1977,0.1984,0.1964,0.196,0.196,0.1948,0.1957,0.1949,0.1951,0.196,0.1959,0.1938,0.1937,0.1951,0.1913,0.193,0.1927,0.1914,0.1909,0.1904,0.1904,0.1971,0,0,0,0,0,0.1968,0.1958,0.196,0.1942,0.194,0.1944,0.1939,0.1944,0.1941,0.1939,0.1939,0.1934,0.1923,0.1916,0.1907,0.1882,0.188,0.1869,0.1865,0.1861,0.1858,0.1841,0.1835,0.1897,0.1897,0.1897,0,0,0.1953,0.1953,0.1946,0.1938,0.1935,0.1923,0.1943,0.193,0.1921,0.1937,0.1918,0.1918,0.1913,0.189,0.188,0.1889,0.184,0.1858,0.1855,0.1854,0.1838,0.1832,0.1827,0.1895,0.1896,0.1896,0,0,0.192,0.192,0.1904,0.1901,0.1897,0.19,0.1896,0.1894,0.1894,0.1876,0.1887,0.1876,0.1859,0.1854,0.1849,0.1811,0.1819,0.1808,0.1785,0.1769,0.1764,0.176,0.1743,0.1738,0.1805,0.1805,0.1805,0,0.1902,0.1885,0.1894,0.188,0.1874,0.1888,0.1871,0.1867,0.186,0.1856,0.1866,0.1842,0.184,0.1815,0.1805,0.1802,0.1796,0.1808,0.1764,0.176,0.1756,0.174,0.1735,0.1803,0.1804,0.1804,0.1804,0,0.1862,0.185,0.1837,0.1829,0.1823,0.1807,0.1812,0.1804,0.181,0.1811,0.179,0.1788,0.1777,0.1772,0.1778,0.1747,0.1752,0.1763,0.178,0.1748,0.1734,0.1728,0.1801,0.1802,0.1802,0.1803,0,0,0.1815,0.1811,0.1806,0.1802,0.1798,0.1788,0.1772,0.1761,0.1753,0.1748,0.1732,0.1716,0.1726,0.172,0.1726,0.1712,0.1678,0.1724,0.1724,0.1713,0.164,0.163,0.1623,0.1684,0.1683,0.1683,0.1639,0,0.178,0.1753,0.1759,0.1731,0.1718,0.1731,0.1716,0.1711,0.1712,0.17,0.1701,0.1688,0.1703,0.1699,0.1686,0.1685,0.1663,0.1689,0.1668,0.1667,0.1666,0.1616,0.1606,0.1565,0.1634,0.1633,0.1633,0,0.1736,0.1728,0.1698,0.1694,0.1689,0.1676,0.1665,0.1655,0.1649,0.165,0.1642,0.165,0.1631,0.165,0.1624,0.1641,0.1633,0.1631,0.1629,0.1626,0.1646,0.1608,0.1553,0.1545,0.1624,0.1625,0.1626,0,0.1701,0.1683,0.1662,0.1659,0.1654,0.1644,0.1641,0.1636,0.1628,0.1619,0.1613,0.1602,0.1595,0.1585,0.1588,0.1602,0.156,0.158,0.1558,0.1558,0.1547,0.1547,0.1486,0.1546,0.1546,0.1546,0.1546,0,0.166,0.1641,0.1646,0.1633,0.1611,0.1619,0.1596,0.1595,0.159,0.1576,0.1586,0.1572,0.1578,0.1564,0.1567,0.1542,0.154,0.1539,0.1539,0.1536,0.1536,0.1529,0.1531,0.1545,0.1545,0.1545,0.1545,0,0.1616,0.162,0.1598,0.1595,0.1593,0.1577,0.1574,0.156,0.1561,0.1543,0.1539,0.154,0.1523,0.1526,0.1508,0.151,0.1478,0.1484,0.148,0.1481,0.1458,0.1459,0.1388,0.1378,0.1447,0.1446,0.1446,0,0.1589,0.1574,0.1569,0.1561,0.1557,0.1543,0.1535,0.1541,0.1532,0.1522,0.1509,0.1494,0.1482,0.1455,0.1453,0.1439,0.1442,0.1418,0.144,0.1436,0.1438,0.1438,0.1435,0.1413,0.1413,0.1412,0.1411,0,0.1539,0.1541,0.1529,0.1517,0.1507,0.1498,0.1489,0.1481,0.1486,0.1475,0.1458,0.1449,0.143,0.1413,0.1399,0.1395,0.1403,0.1405,0.1398,0.1394,0.1392,0.139,0.1466,0.1406,0.1407,0.1407,0.1407,0.1408,0.1501,0.1487,0.1481,0.1466,0.1461,0.1452,0.1439,0.1438,0.1424,0.1409,0.1413,0.1394,0.1385,0.1367,0.1361,0.1345,0.1353,0.1345,0.1342,0.1339,0.1335,0.1396,0.1343,0.1343,0.1343,0.1343,0.1343,0,0.1448,0.1444,0.1431,0.1419,0.1407,0.1417,0.1407,0.1396,0.1379,0.1371,0.1358,0.1338,0.1321,0.1318,0.1301,0.1288,0.1291,0.1284,0.1283,0.1282,0.133,0.1336,0.1281,0.1281,0.1281,0.1281,0.1282,0.1282,0.142,0.1396,0.1397,0.137,0.1366,0.1347,0.134,0.1332,0.1325,0.1301,0.1288,0.1286,0.1278,0.1261,0.1246,0.1245,0.1237,0.1228,0.1228,0.1273,0.1279,0.1284,0.129,0.1227,0.1226,0.118,0.118,0.1179]}]]